Track METEOR PRIRODA now! 10-day predictions METEOR PRIRODA is classified as:
1 12585U 81065A 21057.90891691 .00000968 00000-0 45359-4 0 9992 2 12585 97.5681 53.6416 0014214 6.7365 353.4060 15.22084454161805